Location: Cardiff
(53.7833°N, 113.6000°W)
Time: 07:05:00
(UTC+00:00)

RS-15 - Pass Details

Date: 07 December 2023
Orbit: 1893 x 2151 km, 64.8° (Epoch: 21 February)

Event Time Altitude Azimuth Distance (km) Brightness Sun altitude
Exits shadow 10:01:09 59° 33° (NNE) 2,225 8.2 -47.3°
Drops below altitude 10° 10:11:45 10° 105° (ESE) 4,327 10.2 -45.9°
Sets 10:15:04 0° 109° (ESE) 5,302 10.7 -45.5°
